sat.trackr.live / text

‹ back to catalog

STARLINK-31539

NORAD 59539 · 2024-074F

PAYLOAD ACTIVE UNKNOWN

§ Identity

Operator
Country
US
Launch date
2024-04-18
Launch site
AFETR
Launch vehicle
Mass (kg)
RCS (m²)

Purposes: comms

External: N2YO · Heavens-Above · Gunter

§ Orbital elements

Epoch: 2026-09-21T10:59:46.312224Z

Period
94.27 min
Inclination
43.0021°
Eccentricity
0.0001072
Mean motion
15.27577200 rev/d
Perigee alt
482.3 km
Apogee alt
483.8 km
Semi-major
6,861.2 km
B*
1.1325e-5
RAAN
318.0089°
Arg perigee
273.2301°
Mean anomaly
86.8428°
Rev number
13,595

§ Raw data

STARLINK-315391 59539U 24074F   26264.45817491  .00000050  00000+0  11325-4 0  99972 59539  43.0021 318.0089 0001072 273.2301  86.8428 15.27577200135955

JSON: /api/v1/satellites/59539 · /tle

For live sub-satellite position, see the globe view (requires WebGL).

§ Visibility from observer

Set your observer location to see the next 7 days of passes ≥ 10°. The values pass through the URL so the page stays shareable.

No JS? Fill the form by hand. The geolocation button needs JavaScript.